sat.trackr.live / text

‹ back to catalog

STARLINK-31408

NORAD 59240 · 2024-049K

PAYLOAD ACTIVE UNKNOWN

§ Identity

Operator
Country
US
Launch date
2024-03-16
Launch site
AFETR
Launch vehicle
Mass (kg)
RCS (m²)

Purposes: comms

External: N2YO · Heavens-Above · Gunter

§ Orbital elements

Epoch: 2026-09-19T01:02:24.370368Z

Period
94.27 min
Inclination
43.0043°
Eccentricity
0.0001080
Mean motion
15.27573736 rev/d
Perigee alt
482.3 km
Apogee alt
483.8 km
Semi-major
6,861.2 km
B*
2.7146e-5
RAAN
131.8679°
Arg perigee
274.3186°
Mean anomaly
85.7543°
Rev number
14,197

§ Raw data

STARLINK-314081 59240U 24049K   26262.04333762  .00000485  00000+0  27146-4 0  99952 59240  43.0043 131.8679 0001080 274.3186  85.7543 15.27573736141971

JSON: /api/v1/satellites/59240 · /tle

For live sub-satellite position, see the globe view (requires WebGL).

§ Visibility from observer

Set your observer location to see the next 7 days of passes ≥ 10°. The values pass through the URL so the page stays shareable.

No JS? Fill the form by hand. The geolocation button needs JavaScript.